Regional Weather Roundup
Issued by NWS

Home | Current Version | Previous Version | Text Only | Print | Product List | Glossary On
Versions: 1 2 3 4 5 6 7 8 9 10 11 12 13 14 15 16 17 18 19 20 21 22 23 24 25 26 27
000
ASUS44 KJAN 241920
RWRMS

MISSISSIPPI HOURLY WEATHER ROUNDUP
NATIONAL WEATHER SERVICE JACKSON MS
200 PM CDT WED AUG 24 2016

NOTE: "FAIR: INDICATES FEW OR NO CLOUDS BELOW 12,000 FEET WITH NO
SIGNIFICANT WEATHER AND/OR OBSTRUCTIONS TO VISIBILITY.

MSZ001>002-007>008-010>013-018>021-025>028-034>036-242000-
NORTHWEST MISSISSIPPI

CITY           SKY/WX    TMP DP  RH WIND       PRES   REMARKS
CLARKSDALE     SUNNY     93  75  55 S8        30.14F HX 104
GREENWOOD      SUNNY     93  73  52 SW3       30.15F HX 102
GREENVILLE     MOSUNNY   92  73  53 S6        30.14F HX 100
OLIVE BRANCH   MOSUNNY  N/A N/A N/A SW12      30.14F
OXFORD         FAIR      91  70  49 SW7       30.17F HX  97
TUNICA         CLEAR     91  73  55 S8        30.14F HX 100
$$

MSZ003>006-009-014>017-022>024-029>033-037>039-242000-
NORTHEAST MISSISSIPPI

CITY           SKY/WX    TMP DP  RH WIND       PRES   REMARKS
COLUMBUS AFB   SUNNY     94  79  61 VRB5      30.15F HX 112
CORINTH        FAIR      91  73  55 SW9       30.16F HX 100
TUPELO         PTSUNNY   93  71  48 W3        30.16F HX 100
$$

MSZ040-058-242000-
CENTRAL MISSISSIPPI

CITY           SKY/WX    TMP DP  RH WIND       PRES   REMARKS
JACKSON INTL   PTSUNNY   91  74  57 CALM      30.14F HX 100
JACKSON HAWKNS SUNNY     94  72  48 W6        30.15F HX 102
MERIDIAN KEY   PTSUNNY   96  73  47 NE3       30.15F HX 105
MERIDIAN NAS   NOT AVBL
$$

MSZ059>079-242000-
SOUTH MISSISSIPPI

CITY           SKY/WX    TMP DP  RH WIND       PRES   REMARKS
BROOKHAVEN     FAIR     N/A N/A N/A CALM      30.15F
HATTIESBURG    MOSUNNY   93  73  52 VRB5      30.14F HX 102
MCCOMB         MOSUNNY   93  72  50 SE5       30.15F HX 101
NATCHEZ        MOSUNNY   91  75  59 N6        30.13F HX 102
PINE BELT      MOSUNNY   91  73  55 CALM      30.16F HX 100
$$

MSZ080>082-242000-
COASTAL MISSISSIPPI

CITY           SKY/WX    TMP DP  RH WIND       PRES   REMARKS
BAY ST LOUIS   PTSUNNY   91  68  46 CALM      30.10F HX  95
BILOXI         TSTM      82  75  80 SE9       30.11S
PASCAGOULA     CLOUDY    83  79  88 VRB3      30.12F HX  94
GULFPORT       CLOUDY    83  77  82 N14       30.11S THUNDER HAZE
$$

LAZ007>009-015>016-023>026-242000-
NORTHEAST LOUISIANA

CITY           SKY/WX    TMP DP  RH WIND       PRES   REMARKS
BASTROP        FAIR      92  76  58 SW6       30.15S HX 104
TALLULAH/VBURG PTSUNNY   91  75  59 VRB3      30.14F HX 101
$$




USA.gov is the U.S. government's official web portal to all federal, state and local government web resources and services.